Location: Esp�n
(42.4593°N, 0.2047°W)
Time: 15:52:14
(UTC+00:00)

Meteor 2-10 Rocket - Pass Details

Date: 07 June 2020
Orbit: 733 x 885 km, 81.2° (Epoch: 10 July)

Event Time Altitude Azimuth Distance (km) Brightness Sun altitude
Rises 00:27:06 0° 350° (N) 3,237 8.0 -24.5°
Reaches altitude 10° 00:29:29 10° 352° (N) 2,289 6.9 -24.4°
Maximum altitude 00:34:37 80° 79° (E) 757 3.4 -24.3°
Enters shadow 00:35:16 67° 146° (SE) 804 3.3 -24.2°
